This is the latest recevied weather packets stored in our database for station/object IU1WWE-10. If no packets are shown the sender has not sent any weather packets the latest 10 day(s).
| Time | Temp. | Humidity | Pressure | Rain* | Wind** | Luminosity | Snow |
|---|---|---|---|---|---|---|---|
| 1787933290 | 18.33° C | 92% | 1015 hPa | 8.89 mm | - | - | - |
| 1787932988 | 18.33° C | 93% | 1015.2 hPa | 8.89 mm | - | - | - |
| 1787932685 | 18.33° C | 93% | 1015.3 hPa | 8.89 mm | - | - | - |
| 1787932383 | 17.78° C | 92% | 1015.2 hPa | 8.89 mm | - | - | - |
| 1787932081 | 18.33° C | 93% | 1015.1 hPa | 8.89 mm | - | - | - |
| 1787931779 | 17.78° C | 92% | 1015.3 hPa | 8.89 mm | - | - | - |
| 1787931477 | 17.78° C | 93% | 1015.3 hPa | 8.89 mm | - | - | - |
| 1787931175 | 17.78° C | 93% | 1015.4 hPa | 8.89 mm | - | - | - |
| 1787930873 | 17.78° C | 94% | 1015.6 hPa | 8.89 mm | - | - | - |
| 1787930571 | 17.22° C | 95% | 1015.6 hPa | 8.89 mm | - | - | - |
| 1787930269 | 17.22° C | 95% | 1015.6 hPa | 8.89 mm | - | - | - |
| 1787929967 | 17.22° C | 95% | 1015.6 hPa | 8.89 mm | - | - | - |
| 1787929665 | 17.22° C | 95% | 1015.8 hPa | 8.89 mm | - | - | - |
| 1787929363 | 17.22° C | 95% | 1015.8 hPa | 8.89 mm | - | - | - |
| 1787929061 | 17.22° C | 94% | 1016.4 hPa | 8.89 mm | - | - | - |
| 1787928758 | 17.22° C | 94% | 1016.3 hPa | 8.89 mm | - | - | - |
| 1787928457 | 17.22° C | 93% | 1016.6 hPa | 8.89 mm | - | - | - |
| 1787928160 | 17.78° C | 92% | 1016.6 hPa | 8.89 mm | - | - | - |
| 1787927852 | 17.78° C | 93% | 1016.8 hPa | 8.89 mm | - | - | - |
| 1787927550 | 17.78° C | 91% | 1016.8 hPa | 8.89 mm | - | - | - |
| 1787927248 | 18.33° C | 91% | 1016.6 hPa | 8.64 mm | - | - | - |
| 1787926946 | 18.89° C | 90% | 1017.1 hPa | 8.64 mm | - | - | - |
| 1787926644 | 18.89° C | 92% | 1016.9 hPa | 8.13 mm | - | - | - |
| 1787926342 | 19.44° C | 92% | 1016.7 hPa | 7.37 mm | - | - | - |
| 1787926040 | 19.44° C | 91% | 1016.5 hPa | 6.6 mm | - | - | - |
* Rain since midnight (hover to see other rain measurements)
** Current wind speed in m/s (hover to see current wind gust speed)